When you browse on this site, cookies collect data to enhance your experience and personalize the content and advertising you see.
Visit our Privacy Policy to learn more. By continuing to use the site, you agree to this use of cookies and data.
  • In Hungary
  • List of Countries
  • For 7 days
  • Water Temperature
  • Satellite Maps
  • Weather Map
  • News
  • Weather Widgets
  • user-avatar
    Login

    Hourly Weather Qingguang

    Today, 21 April, Sunday

    Time Temperature Precipitation Wind Pressure Humidity
    00:00 +12°C° 0 mm 1 mps 759 mmHg 51%
    01:00 +12°C° 0 mm 1 mps 759 mmHg 51%
    02:00 +12°C° 0 mm 1 mps 760 mmHg 58%
    03:00 +11°C° 0 mm 1 mps 760 mmHg 59%
    04:00 +11°C° 0 mm 1 mps 760 mmHg 59%
    05:00 +11°C° 0 mm 1 mps 760 mmHg 59%
    06:00 +12°C° 0 mm 2 mps 760 mmHg 55%
    07:00 +13°C° 0 mm 2 mps 761 mmHg 51%
    08:00 +14°C° 0 mm 3 mps 761 mmHg 42%
    09:00 +16°C° 0 mm 3 mps 761 mmHg 37%
    10:00 +18°C° 0 mm 4 mps 761 mmHg 32%
    11:00 +20°C° 0 mm 4 mps 761 mmHg 27%
    12:00 +20°C° 0 mm 4 mps 761 mmHg 27%
    13:00 +21°C° 0 mm 4 mps 760 mmHg 26%
    14:00 +22°C° 0 mm 4 mps 760 mmHg 25%
    15:00 +21°C° 0 mm 4 mps 760 mmHg 28%
    16:00 +20°C° 0 mm 5 mps 759 mmHg 30%
    17:00 +20°C° 0 mm 5 mps 759 mmHg 33%
    18:00 +18°C° 0 mm 4 mps 759 mmHg 39%
    19:00 +15°C° 0 mm 4 mps 759 mmHg 46%
    20:00 +14°C° 0 mm 3 mps 759 mmHg 52%
    21:00 +13°C° 0 mm 3 mps 759 mmHg 56%
    22:00 +13°C° 0 mm 3 mps 760 mmHg 60%
    23:00 +12°C° 0 mm 3 mps 760 mmHg 64%

    Tomorrow, 22 April, Monday

    Time Temperature Precipitation Wind Pressure Humidity
    00:00 +13°C° 0 mm 2 mps 760 mmHg 66%
    01:00 +13°C° 0 mm 2 mps 760 mmHg 69%
    02:00 +13°C° 0 mm 1 mps 759 mmHg 71%
    03:00 +12°C° 0 mm 1 mps 759 mmHg 72%
    04:00 +12°C° 0 mm 1 mps 759 mmHg 73%
    05:00 +12°C° 0 mm 1 mps 759 mmHg 75%
    06:00 +14°C° 0 mm 1 mps 759 mmHg 70%
    07:00 +15°C° 0 mm 1 mps 759 mmHg 65%
    08:00 +18°C° 0 mm 1 mps 759 mmHg 59%
    09:00 +19°C° 0 mm 2 mps 759 mmHg 53%
    10:00 +23°C° 0 mm 2 mps 759 mmHg 48%
    11:00 +25°C° 0 mm 3 mps 758 mmHg 42%
    12:00 +27°C° 0 mm 4 mps 758 mmHg 38%
    13:00 +29°C° 0 mm 4 mps 757 mmHg 34%
    14:00 +30°C° 0 mm 5 mps 756 mmHg 31%
    15:00 +30°C° 0 mm 5 mps 756 mmHg 32%
    16:00 +30°C° 0 mm 5 mps 755 mmHg 33%
    17:00 +32°C° 0 mm 5 mps 755 mmHg 34%
    18:00 +29°C° 0 mm 5 mps 755 mmHg 39%
    19:00 +28°C° 0 mm 4 mps 755 mmHg 44%
    20:00 +26°C° 0 mm 3 mps 755 mmHg 49%
    21:00 +26°C° 0 mm 3 mps 755 mmHg 51%
    22:00 +25°C° 0 mm 3 mps 756 mmHg 52%
    23:00 +24°C° 0 mm 3 mps 756 mmHg 54%

    Day after tomorrow, 23 April, Tuesday

    Time Temperature Precipitation Wind Pressure Humidity
    00:00 +22°C° 0 mm 3 mps 756 mmHg 56%
    01:00 +22°C° 0 mm 3 mps 756 mmHg 58%
    02:00 +21°C° 0 mm 2 mps 756 mmHg 60%
    03:00 +20°C° 0 mm 2 mps 756 mmHg 63%
    04:00 +20°C° 0 mm 2 mps 755 mmHg 66%
    05:00 +19°C° 0 mm 2 mps 755 mmHg 70%
    06:00 +20°C° 0 mm 2 mps 755 mmHg 68%
    07:00 +21°C° 0 mm 2 mps 756 mmHg 66%
    08:00 +22°C° 0 mm 3 mps 756 mmHg 64%
    09:00 +24°C° 0 mm 3 mps 756 mmHg 58%
    10:00 +26°C° 0 mm 2 mps 756 mmHg 52%
    11:00 +27°C° 0 mm 2 mps 756 mmHg 47%
    12:00 +28°C° 0 mm 3 mps 756 mmHg 44%
    13:00 +29°C° 0 mm 4 mps 755 mmHg 41%
    14:00 +30°C° 0 mm 4 mps 755 mmHg 38%
    15:00 +29°C° 0 mm 5 mps 755 mmHg 41%
    16:00 +28°C° 0 mm 5 mps 755 mmHg 43%
    17:00 +27°C° 0 mm 6 mps 754 mmHg 45%
    18:00 +25°C° 0 mm 5 mps 755 mmHg 52%
    19:00 +23°C° 0 mm 5 mps 755 mmHg 59%
    20:00 +21°C° 0 mm 5 mps 755 mmHg 65%
    21:00 +20°C° 0 mm 4 mps 756 mmHg 69%
    22:00 +19°C° 0 mm 4 mps 756 mmHg 73%
    23:00 +19°C° 0 mm 3 mps 756 mmHg 77%

    24 April, Wednesday

    Time Temperature Precipitation Wind Pressure Humidity
    00:00 +18°C° 0 mm 3 mps 756 mmHg 80%
    01:00 +17°C° 0 mm 3 mps 756 mmHg 83%
    02:00 +17°C° 0 mm 3 mps 756 mmHg 85%
    03:00 +17°C° 0 mm 3 mps 756 mmHg 86%
    04:00 +16°C° 0 mm 3 mps 756 mmHg 86%
    05:00 +16°C° 0 mm 3 mps 757 mmHg 86%
    06:00 +17°C° 0 mm 4 mps 757 mmHg 84%
    07:00 +17°C° 0 mm 4 mps 758 mmHg 82%
    08:00 +18°C° 0 mm 4 mps 758 mmHg 79%
    09:00 +17°C° 0 mm 5 mps 759 mmHg 68%
    10:00 +17°C° 0 mm 6 mps 760 mmHg 58%
    11:00 +17°C° 0 mm 7 mps 761 mmHg 47%
    12:00 +16°C° 0 mm 7 mps 761 mmHg 42%
    13:00 +16°C° 0 mm 7 mps 761 mmHg 36%
    14:00 +15°C° 0 mm 7 mps 761 mmHg 31%
    15:00 +15°C° 0 mm 6 mps 761 mmHg 35%
    16:00 +14°C° 0 mm 6 mps 761 mmHg 40%
    17:00 +13°C° 0 mm 6 mps 761 mmHg 44%
    18:00 +11°C° 0.9 mm 6 mps 761 mmHg 52%
    19:00 +10°C° 0.9 mm 5 mps 761 mmHg 60%
    20:00 +9°C° 0.9 mm 5 mps 762 mmHg 68%
    21:00 +10°C° 0.7 mm 4 mps 762 mmHg 70%
    22:00 +8°C° 0.7 mm 4 mps 762 mmHg 71%
    23:00 +8°C° 0.7 mm 4 mps 762 mmHg 73%

    25 April, Thursday

    Time Temperature Precipitation Wind Pressure Humidity
    00:00 +8°C° 0.1 mm 4 mps 762 mmHg 71%
    01:00 +8°C° 0.1 mm 4 mps 762 mmHg 69%
    02:00 +8°C° 0.1 mm 4 mps 762 mmHg 67%
    03:00 +8°C° 0 mm 4 mps 762 mmHg 64%
    04:00 +9°C° 0 mm 3 mps 761 mmHg 61%
    05:00 +9°C° 0 mm 3 mps 761 mmHg 58%
    06:00 +10°C° 0 mm 3 mps 762 mmHg 55%
    07:00 +10°C° 0 mm 3 mps 762 mmHg 52%
    08:00 +10°C° 0 mm 2 mps 762 mmHg 49%
    09:00 +13°C° 0 mm 2 mps 762 mmHg 45%
    10:00 +14°C° 0 mm 2 mps 762 mmHg 40%
    11:00 +15°C° 0 mm 2 mps 762 mmHg 36%
    12:00 +16°C° 0 mm 2 mps 762 mmHg 33%
    13:00 +19°C° 0 mm 1 mps 761 mmHg 31%
    14:00 +20°C° 0 mm 1 mps 761 mmHg 28%
    15:00 +21°C° 0 mm 1 mps 760 mmHg 28%
    16:00 +21°C° 0 mm 1 mps 760 mmHg 27%
    17:00 +21°C° 0 mm 1 mps 759 mmHg 27%
    18:00 +20°C° 0 mm 1 mps 760 mmHg 27%
    19:00 +18°C° 0 mm 2 mps 760 mmHg 28%
    20:00 +17°C° 0 mm 2 mps 760 mmHg 28%
    21:00 +16°C° 0.6 mm 2 mps 761 mmHg 34%
    22:00 +15°C° 0.6 mm 2 mps 761 mmHg 40%
    23:00 +14°C° 0.6 mm 2 mps 761 mmHg 46%

    26 April, Friday

    Time Temperature Precipitation Wind Pressure Humidity
    00:00 +14°C° 0.2 mm 2 mps 761 mmHg 49%
    01:00 +13°C° 0.2 mm 2 mps 761 mmHg 52%
    02:00 +13°C° 0.2 mm 1 mps 761 mmHg 55%
    03:00 +13°C° 0 mm 2 mps 761 mmHg 57%
    04:00 +13°C° 0 mm 2 mps 762 mmHg 58%
    05:00 +12°C° 0 mm 3 mps 762 mmHg 60%
    06:00 +13°C° 0 mm 3 mps 763 mmHg 54%
    07:00 +13°C° 0 mm 4 mps 763 mmHg 49%
    08:00 +14°C° 0 mm 4 mps 764 mmHg 44%
    09:00 +17°C° 0 mm 4 mps 764 mmHg 36%
    10:00 +18°C° 0 mm 4 mps 765 mmHg 27%
    11:00 +19°C° 0 mm 4 mps 765 mmHg 19%
    12:00 +20°C° 0 mm 3 mps 765 mmHg 20%
    13:00 +21°C° 0 mm 2 mps 764 mmHg 20%
    14:00 +23°C° 0 mm 2 mps 764 mmHg 20%
    15:00 +23°C° 0 mm 1 mps 764 mmHg 20%
    16:00 +23°C° 0 mm 1 mps 764 mmHg 21%
    17:00 +23°C° 0 mm 1 mps 763 mmHg 21%
    18:00 +22°C° 0 mm 1 mps 764 mmHg 23%
    19:00 +21°C° 0 mm 1 mps 764 mmHg 24%
    20:00 +18°C° 0 mm 2 mps 764 mmHg 26%
    21:00 +18°C° 0 mm 2 mps 764 mmHg 26%
    22:00 +17°C° 0 mm 2 mps 764 mmHg 27%
    23:00 +16°C° 0 mm 2 mps 765 mmHg 27%
    Show more